Regional Weather Roundup
Issued by NWS Goodland, KS

Home | Current Version | Previous Version | Graphics & Text | Print | Product List | Glossary On
Versions: 1 2 3 4 5 6 7 8 9 10 11 12 13 14 15 16 17 18 19 20 21 22 23 24 25 26 27 28 29 30 31 32 33 34 35 36 37 38 39 40 41 42 43 44 45 46 47 48 49 50
000
ASUS43 KGLD 302208
RWRGLD

GOODLAND FORECAST AREA HOURLY WEATHER ROUNDUP
NATIONAL WEATHER SERVICE GOODLAND KS
400 PM MDT SAT AUG 30 2014

...OFFICIAL OBSERVATIONS...

CITY           SKY/WX    TMP DP  RH WIND       PRES   REMARKS
GOODLAND KS    SUNNY     89  49  25 S13       29.89F
HILL CITY KS   SUNNY     92  54  27 S13       29.86F
IMPERIAL NEB   SUNNY     89  50  26 S16G23    29.85F
MCCOOK NEB     SUNNY     92  55  28 SW10      29.84F
AKRON CO       SUNNY     86  45  23 S12       29.91F
BURLINGTON CO  SUNNY     89  42  19 S13G21    29.92F
LIMON CO       SUNNY     84  42  22 S13G18    29.97F
$$

...UNOFFICIAL OBSERVATIONS...

CITY           SKY/WX    TMP DP  RH WIND       PRES   REMARKS
COLBY KS       SUNNY     90  57  33 SE17      29.89F
GOVE KS          N/A     91  32  12 CALM        N/A
NORTON KS      SUNNY     93  46  20 S14G22    29.84F
SHARON SPRINGS   N/A     92  52  25 S12         N/A
WAKEENEY KS      N/A     92  45  19 MISG        N/A
KIT CARSON CO    N/A     89  47  23 N6G14       N/A
YUMA CO          N/A     87  44  21 S7          N/A
$$


USA.gov is the U.S. government's official web portal to all federal, state and local government web resources and services.